Location: Gerlach
(40.6516°N, 119.3568°W)
Time: 09:17:35
(UTC-08:00)

Courier 1B Rocket - Visible Passes

Search period start: 07 February 2023 00:00
Search period end: 17 February 2023 00:00
Orbit: 920 x 1202 km, 28.2° (Epoch: 07 February)

Date Brightness Start Highest point End Pass type
(mag) Time Alt. Az. Time Alt. Az. Time Alt. Az.
07 Feb 6.8 18:07:37 10° WSW 18:12:13 22° SSW 18:16:48 10° SE visible
07 Feb 7.3 20:04:16 10° SSW 20:04:35 10° SSW 20:04:52 10° SSW visible
08 Feb 7.2 19:00:48 10° SW 19:03:52 14° SSW 19:06:55 10° S visible
09 Feb 7.1 17:59:04 10° WSW 18:03:08 18° SSW 18:07:10 10° SSE visible
11 Feb 7.3 17:50:56 10° SW 17:54:00 14° SSW 17:57:03 10° S visible
